TimeEET,TemperatureF,Dew PointF,Humidity,Sea Level PressureIn,VisibilityMPH,Wind Direction,Wind SpeedMPH,Gust SpeedMPH,PrecipitationIn,Events,Conditions,WindDirDegrees,DateUTC
12:20 AM,-11.2,-14.8,84,30.42,2.5,Variable,2.3,-,N/A,,Mist,0,2013-12-25 22:20:00
12:50 AM,-9.4,-13.0,84,30.42,2.5,Variable,2.3,-,N/A,,Mist,0,2013-12-25 22:50:00
1:20 AM,-9.4,-11.2,92,30.42,2.8,Variable,2.3,-,N/A,,Mist,0,2013-12-25 23:20:00
1:50 AM,-9.4,-13.0,84,30.42,2.8,Variable,2.3,-,N/A,,Mist,0,2013-12-25 23:50:00
2:00 AM,-10,-10,98,,3,South,2.3,,,,Mist,180,2013-12-26 00:00:00
2:20 AM,-11.2,-14.8,84,30.42,-9999.0,Variable,2.3,-,N/A,,Mist,0,2013-12-26 00:20:00
2:50 AM,-11.2,-14.8,84,30.42,-9999.0,Calm,Calm,-,N/A,,Mist,0,2013-12-26 00:50:00
3:20 AM,-9.4,-13.0,84,30.39,-9999.0,South,3.5,-,N/A,,Partly Cloudy,180,2013-12-26 01:20:00
3:50 AM,-14.8,-18.4,84,30.42,-9999.0,Variable,2.3,-,N/A,,Partly Cloudy,0,2013-12-26 01:50:00
4:20 AM,-11.2,-14.8,84,30.42,-9999.0,Variable,2.3,-,N/A,,Partly Cloudy,0,2013-12-26 02:20:00
4:50 AM,-11.2,-14.8,84,30.42,-9999.0,Variable,2.3,-,N/A,,Partly Cloudy,0,2013-12-26 02:50:00
5:00 AM,-12,-12,100,,3,NW,2.3,,,,Mist,320,2013-12-26 03:00:00
5:20 AM,-11.2,-13.0,92,30.42,-9999.0,SSE,3.5,-,N/A,,Mist,150,2013-12-26 03:20:00
5:50 AM,-11.2,-14.8,84,30.42,5.6,Variable,1.2,-,N/A,,Unknown,0,2013-12-26 03:50:00
6:12 AM,-13.0,-16.6,84,30.42,-9999.0,Variable,2.3,-,N/A,,Mist,0,2013-12-26 04:12:00
6:20 AM,-13.0,-16.6,84,30.42,-9999.0,NNW,2.3,-,N/A,,Partly Cloudy,340,2013-12-26 04:20:00
6:45 AM,-11.2,-14.8,84,30.42,1.6,Variable,1.2,-,N/A,,Partly Cloudy,0,2013-12-26 04:45:00
6:50 AM,-11.2,-14.8,84,30.42,-9999.0,Variable,2.3,-,N/A,,Partly Cloudy,0,2013-12-26 04:50:00
7:20 AM,-9.4,-13.0,84,30.42,-9999.0,Variable,2.3,-,N/A,,Partly Cloudy,0,2013-12-26 05:20:00
7:50 AM,-7.6,-11.2,84,30.42,-9999.0,Variable,2.3,-,N/A,,Partly Cloudy,0,2013-12-26 05:50:00
8:00 AM,-8,-9,90,,2,West,2.3,,,,Mist,280,2013-12-26 06:00:00
8:20 AM,-4.0,-7.6,85,30.42,-9999.0,Calm,Calm,-,N/A,,Partly Cloudy,0,2013-12-26 06:20:00
8:50 AM,-2.2,-4.0,92,30.42,2.2,Variable,1.2,-,N/A,,Partly Cloudy,0,2013-12-26 06:50:00
9:20 AM,-0.4,-4.0,85,30.42,2.5,West,1.2,-,N/A,,Partly Cloudy,270,2013-12-26 07:20:00
9:50 AM,3.2,-0.4,85,30.42,2.5,West,3.5,-,N/A,,Partly Cloudy,260,2013-12-26 07:50:00
10:20 AM,10.4,6.8,85,30.39,-9999.0,Calm,Calm,-,N/A,,Partly Cloudy,0,2013-12-26 08:20:00
10:50 AM,12.2,3.2,67,30.39,3.7,Variable,2.3,-,N/A,,Partly Cloudy,0,2013-12-26 08:50:00
11:00 AM,11,11,98,,4,South,2.3,,,,Mist,180,2013-12-26 09:00:00
11:20 AM,10.4,3.2,73,30.39,3.7,Variable,2.3,-,N/A,,Scattered Clouds,0,2013-12-26 09:20:00
11:50 AM,10.4,5.0,79,30.36,3.7,Calm,Calm,-,N/A,,Scattered Clouds,0,2013-12-26 09:50:00
12:20 PM,15.8,5.0,62,30.36,3.7,Variable,1.2,-,N/A,,Scattered Clouds,0,2013-12-26 10:20:00
12:50 PM,14.0,8.6,79,30.36,-9999.0,Variable,2.3,-,N/A,,Scattered Clouds,0,2013-12-26 10:50:00
1:20 PM,14.0,6.8,73,30.33,2.5,ENE,3.5,-,N/A,,Scattered Clouds,70,2013-12-26 11:20:00
1:50 PM,17.6,12.2,79,30.33,2.5,SE,3.5,-,N/A,,Scattered Clouds,130,2013-12-26 11:50:00
2:00 PM,18,10,60,,2,SE,3.5,,,,Mist,130,2013-12-26 12:00:00
2:20 PM,17.6,10.4,73,30.33,2.8,SSE,4.6,-,N/A,,Scattered Clouds,150,2013-12-26 12:20:00
2:50 PM,15.8,12.2,86,30.33,2.5,Calm,Calm,-,N/A,,Scattered Clouds,0,2013-12-26 12:50:00
3:20 PM,14.0,8.6,79,30.33,2.5,Calm,Calm,-,N/A,,Scattered Clouds,0,2013-12-26 13:20:00
3:50 PM,12.2,6.8,79,30.33,2.5,West,3.5,-,N/A,,Mostly Cloudy,260,2013-12-26 13:50:00
4:20 PM,14.0,6.8,73,30.33,-9999.0,Variable,3.5,-,N/A,,Mostly Cloudy,0,2013-12-26 14:20:00
4:50 PM,14.0,6.8,73,30.33,2.5,Variable,4.6,-,N/A,,Mostly Cloudy,0,2013-12-26 14:50:00
5:00 PM,15,10,70,,2,ENE,4.6,,,,Mist,70,2013-12-26 15:00:00
5:20 PM,10.4,5.0,79,30.33,2.5,SSE,4.6,-,N/A,,Mostly Cloudy,150,2013-12-26 15:20:00
5:50 PM,10.4,6.8,85,30.33,-9999.0,South,3.5,-,N/A,,Mostly Cloudy,180,2013-12-26 15:50:00
6:20 PM,12.2,6.8,79,30.36,2.5,Variable,2.3,-,N/A,,Mostly Cloudy,0,2013-12-26 16:20:00
6:50 PM,14.0,6.8,73,30.33,6.2,ENE,6.9,-,N/A,,Scattered Clouds,60,2013-12-26 16:50:00
7:20 PM,10.4,5.0,79,30.36,6.2,South,4.6,-,N/A,,Scattered Clouds,190,2013-12-26 17:20:00
7:50 PM,10.4,5.0,79,30.36,6.2,East,1.2,-,N/A,,Scattered Clouds,80,2013-12-26 17:50:00
8:00 PM,10,6,79,,12,East,1.2,,,,Partly Cloudy,80,2013-12-26 18:00:00
8:20 PM,8.6,5.0,85,30.36,6.2,South,4.6,-,N/A,,Scattered Clouds,190,2013-12-26 18:20:00
8:50 PM,6.8,1.4,79,30.33,6.2,Variable,2.3,-,N/A,,Scattered Clouds,0,2013-12-26 18:50:00
9:20 PM,6.8,3.2,85,30.33,6.2,Variable,2.3,-,N/A,,Scattered Clouds,0,2013-12-26 19:20:00
9:50 PM,12.2,5.0,73,30.36,6.2,East,6.9,-,N/A,,Scattered Clouds,80,2013-12-26 19:50:00
10:20 PM,6.8,3.2,85,30.33,6.2,Variable,2.3,-,N/A,,Scattered Clouds,0,2013-12-26 20:20:00
10:50 PM,8.6,5.0,85,30.33,6.2,Variable,2.3,-,N/A,,Scattered Clouds,0,2013-12-26 20:50:00
11:00 PM,9,5,77,,12,South,2.3,,,,Partly Cloudy,180,2013-12-26 21:00:00
11:20 PM,6.8,3.2,85,30.33,6.2,Variable,2.3,-,N/A,,Scattered Clouds,0,2013-12-26 21:20:00
11:50 PM,6.8,3.2,85,30.33,6.2,WSW,4.6,-,N/A,,Scattered Clouds,240,2013-12-26 21:50:00